KC0AFB Weather Reports


time (UTC)temp
F
wind
direction
speed
knots
gust
knots
rain 1hr
in
rain 24hr
in
rain mn
in
humidity
%
barometer
mb
20260507230755 62 325 7.0 8.7 0.00 0.00 0.00 27 1008.6
20260507230253 62 346 5.2 6.1 0.00 0.00 0.00 26 1008.6
20260507225752 62 276 5.2 7.0 0.00 0.00 0.00 24 1008.8
20260507225249 63 294 3.5 4.3 0.00 0.00 0.00 27 1008.7
20260507224744 62 324 6.1 6.1 0.00 0.00 0.00 27 1008.7
20260507224241 62 349 7.0 7.8 0.00 0.00 0.00 27 1008.8
20260507223738 62 256 3.5 4.3 0.00 0.00 0.00 26 1009.0
20260507223234 62 302 8.7 11.3 0.00 0.00 0.00 28 1008.8
20260507222731 62 301 6.1 7.0 0.00 0.00 0.00 27 1008.9
20260507222228 62 292 8.7 11.3 0.00 0.00 0.00 26 1009.0
20260507221725 62 286 7.8 8.7 0.00 0.00 0.00 26 1008.9
20260507221221 62 315 9.6 11.3 0.00 0.00 0.00 26 1008.9
20260507220717 62 326 7.0 7.8 0.00 0.00 0.00 28 1009.0
20260507220216 62 6 6.1 7.8 0.00 0.00 0.00 28 1009.0
20260507215711 61 330 9.6 12.2 0.00 0.00 0.00 26 1008.9
20260507215209 61 293 6.1 6.1 0.00 0.00 0.00 28 1009.5
20260507214707 62 274 7.8 8.7 0.00 0.00 0.00 28 1009.0
20260507214203 62 318 6.1 7.0 0.00 0.00 0.00 30 1009.2
20260507213659 62 262 4.3 7.0 0.00 0.00 0.00 28 1009.4
20260507213156 62 253 4.3 6.1 0.00 0.00 0.00 30 1009.5
20260507212652 61 317 7.8 8.7 0.00 0.00 0.00 29 1009.5
20260507212149 61 288 7.0 8.7 0.00 0.00 0.00 29 1009.4
20260507211646 61 307 4.3 5.2 0.00 0.00 0.00 28 1009.6
20260507211141 61 236 2.6 4.3 0.00 0.00 0.00 27 1009.8
20260507210639 61 347 5.2 7.8 0.00 0.00 0.00 28 1009.6
20260507210135 61 309 6.1 7.0 0.00 0.00 0.00 28 1009.7
20260507205632 61 313 7.8 9.6 0.00 0.00 0.00 28 1009.5
20260507205129 61 300 7.8 9.6 0.00 0.00 0.00 28 1009.6
20260507204625 61 264 4.3 5.2 0.00 0.00 0.00 29 1009.7
20260507204123 62 308 7.8 8.7 0.00 0.00 0.00 28 1009.7
20260507203621 61 299 4.3 5.2 0.00 0.00 0.00 28 1009.9
20260507203118 60 303 5.2 6.1 0.00 0.00 0.00 30 1009.8
20260507202613 61 303 3.5 5.2 0.00 0.00 0.00 33 1010.0
20260507202110 61 321 11.3 14.8 0.00 0.00 0.00 29 1010.1
20260507201605 60 237 4.3 5.2 0.00 0.00 0.00 27 1010.3
20260507201102 60 282 4.3 6.1 0.00 0.00 0.00 30 1010.2
20260507200557 60 296 9.6 11.3 0.00 0.00 0.00 29 1010.1
20260507200054 60 307 6.1 6.1 0.00 0.00 0.00 31 1009.9
20260507195551 60 294 8.7 9.6 0.00 0.00 0.00 30 1010.1
20260507195048 60 280 7.8 11.3 0.00 0.00 0.00 31 1010.2
20260507194544 60 333 6.1 8.7 0.00 0.00 0.00 32 1010.3
20260507194040 60 297 4.3 5.2 0.00 0.00 0.00 32 1010.4
20260507193538 59 243 6.1 7.8 0.00 0.00 0.00 29 1010.1
20260507193035 59 276 6.1 7.0 0.00 0.00 0.00 32 1010.4
20260507192531 59 250 7.0 7.8 0.00 0.00 0.00 28 1010.5
20260507192028 59 306 6.1 7.0 0.00 0.00 0.00 28 1010.3
20260507191523 59 318 5.2 6.1 0.00 0.00 0.00 28 1010.2
20260507191021 59 294 7.8 8.7 0.00 0.00 0.00 31 1010.1
20260507190518 59 243 3.5 4.3 0.00 0.00 0.00 32 1010.3
20260507190017 59 301 7.0 7.8 0.00 0.00 0.00 30 1010.5
20260507185514 59 257 7.0 8.7 0.00 0.00 0.00 30 1010.5
20260507185010 59 238 2.6 2.6 0.00 0.00 0.00 32 1010.5
20260507184509 59 286 6.1 7.0 0.00 0.00 0.00 31 1010.4
20260507184007 59 315 9.6 13.0 0.00 0.00 0.00 30 1010.5
20260507183502 59 324 6.1 7.0 0.00 0.00 0.00 33 1010.3
20260507183000 58 330 4.3 6.1 0.00 0.00 0.00 31 1010.7
20260507182455 58 277 6.1 6.1 0.00 0.00 0.00 31 1010.7
20260507181951 57 300 7.8 8.7 0.00 0.00 0.00 30 1010.8
20260507181448 59 237 5.2 7.0 0.00 0.00 0.00 31 1010.8
20260507180945 58 304 8.7 9.6 0.00 0.00 0.00 31 1010.8
20260507180441 58 319 4.3 6.1 0.00 0.00 0.00 32 1010.9
20260507175938 57 304 2.6 2.6 0.00 0.00 0.00 32 1010.9
20260507175434 57 336 7.8 8.7 0.00 0.00 0.00 33 1011.2
20260507174932 58 295 7.8 11.3 0.00 0.00 0.00 33 1011.1
20260507174429 57 233 3.5 4.3 0.00 0.00 0.00 35 1011.1
20260507173927 57 14 3.5 5.2 0.00 0.00 0.00 38 1011.2
20260507173424 57 223 5.2 6.1 0.00 0.00 0.00 38 1011.1
20260507172920 55 198 1.7 1.7 0.00 0.00 0.00 40 1011.2
20260507172417 55 240 2.6 4.3 0.00 0.00 0.00 35 1011.3
20260507171913 55 258 2.6 4.3 0.00 0.00 0.00 38 1011.3
20260507171409 55 277 3.5 4.3 0.00 0.00 0.00 37 1011.4
20260507170907 55 283 2.6 5.2 0.00 0.00 0.00 40 1011.3
20260507170403 55 284 7.8 9.6 0.00 0.00 0.00 39 1011.5
20260507165859 55 178 2.6 4.3 0.00 0.00 0.00 39 1011.7
20260507165355 53 141 0.9 1.7 0.00 0.00 0.00 37 1011.9
20260507164851 54 322 5.2 7.0 0.00 0.00 0.00 36 1011.9
20260507164349 54 228 4.3 4.3 0.00 0.00 0.00 40 1011.6
20260507163846 53 289 2.6 2.6 0.00 0.00 0.00 39 1012.0
20260507163343 53 339 4.3 6.1 0.00 0.00 0.00 41 1012.0
20260507162840 53 277 6.1 7.0 0.00 0.00 0.00 43 1012.0
20260507162335 52 286 3.5 6.1 0.00 0.00 0.00 46 1012.0
20260507161832 52 290 4.3 5.2 0.00 0.00 0.00 43 1012.1
20260507161329 51 174 2.6 4.3 0.00 0.00 0.00 49 1012.0
20260507160825 51 237 4.3 5.2 0.00 0.00 0.00 47 1012.1
20260507160321 51 268 3.5 4.3 0.00 0.00 0.00 49 1012.3
20260507155818 50 237 2.6 5.2 0.00 0.00 0.00 48 1012.2
20260507155314 51 240 4.3 5.2 0.00 0.00 0.00 48 1012.2
20260507154810 49 217 2.6 2.6 0.00 0.00 0.00 48 1012.4
20260507154308 49 312 3.5 4.3 0.00 0.00 0.00 50 1012.3
20260507153804 48 236 4.3 5.2 0.00 0.00 0.00 50 1012.3
20260507153301 48 284 0.9 1.7 0.00 0.00 0.00 50 1012.3
20260507152757 48 236 3.5 4.3 0.00 0.00 0.00 52 1012.5
20260507152254 47 148 0.9 0.9 0.00 0.00 0.00 54 1012.4
20260507151749 48 214 4.3 5.2 0.00 0.00 0.00 50 1012.2
20260507151246 47 254 2.6 2.6 0.00 0.00 0.00 51 1012.4
20260507150743 46 226 1.7 1.7 0.00 0.00 0.00 53 1012.6
20260507150240 46 249 1.7 2.6 0.00 0.00 0.00 52 1012.5
20260507145736 45 283 3.5 4.3 0.00 0.00 0.00 52 1012.6
20260507145232 45 240 4.3 5.2 0.00 0.00 0.00 51 1012.4
20260507144730 45 253 3.5 4.3 0.00 0.00 0.00 52 1012.4
20260507144227 44 231 1.7 1.7 0.00 0.00 0.00 52 1012.5
20260507143723 44 301 2.6 2.6 0.00 0.00 0.00 53 1012.5
20260507143221 44 174 0.9 0.9 0.00 0.00 0.00 53 1012.5
20260507142717 43 286 1.7 1.7 0.00 0.00 0.00 54 1012.4
20260507142214 43 127 0.0 0.9 0.00 0.00 0.00 58 1012.6
20260507141710 42 238 0.9 0.9 0.00 0.00 0.00 58 1012.5
20260507141207 41 133 0.9 0.9 0.00 0.00 0.00 58 1012.5
20260507140703 41 219 1.7 2.6 0.00 0.00 0.00 59 1012.5
20260507140201 41 209 0.9 1.7 0.00 0.00 0.00 59 1012.3
20260507135657 41 172 2.6 2.6 0.00 0.00 0.00 60 1012.5
20260507135155 40 200 1.7 1.7 0.00 0.00 0.00 62 1012.5
20260507134651 41 154 0.9 1.7 0.00 0.00 0.00 62 1012.3
20260507134147 39 73 0.9 0.9 0.00 0.00 0.00 64 1012.1
20260507133643 40 44 0.9 0.9 0.00 0.00 0.00 63 1012.3
20260507133141 39 151 0.9 0.9 0.00 0.00 0.00 61 1012.2
20260507132638 39 79 0.0 0.0 0.00 0.00 0.00 61 1012.3
20260507132134 39 105 0.0 0.0 0.00 0.00 0.00 61 1012.3
20260507131631 39 98 0.0 0.0 0.00 0.00 0.00 61 1012.5
20260507131129 39 103 0.0 0.0 0.00 0.00 0.00 61 1012.3
20260507130625 39 100 0.0 0.0 0.00 0.00 0.00 61 1012.1
20260507130123 39 88 0.0 0.0 0.00 0.00 0.00 61 1012.2
20260507125622 38 82 0.0 0.0 0.00 0.00 0.00 61 1012.1
20260507125119 38 86 0.0 0.0 0.00 0.00 0.00 61 1011.9
20260507124615 39 81 0.0 0.0 0.00 0.00 0.00 60 1012.1
20260507124113 39 74 0.0 0.0 0.00 0.00 0.00 62 1012.2
20260507123611 36 74 0.0 0.0 0.00 0.00 0.00 64 1012.0
20260507123107 33 74 0.0 0.0 0.00 0.00 0.00 68 1012.0
20260507122603 33 74 0.0 0.0 0.00 0.00 0.00 67 1012.1
20260507122059 32 73 0.0 0.0 0.00 0.00 0.00 70 1011.8
20260507121554 30 68 0.0 0.0 0.00 0.00 0.00 70 1011.9
20260507121051 30 85 0.0 0.0 0.00 0.00 0.00 70 1011.8
20260507120547 30 80 0.0 0.0 0.00 0.00 0.00 70 1011.8
20260507120044 30 81 0.0 0.0 0.00 0.00 0.00 70 1011.7
20260507115540 31 75 0.9 0.9 0.00 0.00 0.00 70 1011.5
20260507115036 30 75 0.9 0.9 0.00 0.00 0.00 71 1011.5
20260507114532 30 72 0.9 0.9 0.00 0.00 0.00 72 1011.5
20260507114030 30 73 1.7 1.7 0.00 0.00 0.00 72 1011.5
20260507113527 29 73 0.9 1.7 0.00 0.00 0.00 73 1011.5
20260507113024 29 71 0.9 0.9 0.00 0.00 0.00 72 1011.5
20260507112521 29 69 0.9 1.7 0.00 0.00 0.00 72 1011.4
20260507112018 29 70 0.9 1.7 0.00 0.00 0.00 72 1011.5
20260507111515 29 68 1.7 1.7 0.00 0.00 0.00 72 1011.5
20260507111011 30 75 0.9 1.7 0.00 0.00 0.00 72 1011.5
20260507110508 29 62 0.9 1.7 0.00 0.00 0.00 72 1011.6
20260507110005 29 72 0.9 0.9 0.00 0.00 0.00 73 1011.5
20260507105501 29 75 0.9 0.9 0.00 0.00 0.00 73 1011.7
20260507104958 29 68 0.9 0.9 0.00 0.00 0.00 73 1011.5
20260507104455 29 81 0.0 0.9 0.00 0.00 0.00 73 1011.6
20260507103950 28 82 0.0 0.9 0.00 0.00 0.00 73 1011.7
20260507103447 28 75 0.9 0.9 0.00 0.00 0.00 74 1011.7
20260507102944 27 85 0.0 0.9 0.00 0.00 0.00 74 1011.7
20260507102441 28 86 0.9 0.9 0.00 0.00 0.00 73 1011.8
20260507101937 28 63 0.9 0.9 0.00 0.00 0.00 73 1011.8
20260507101432 28 67 0.9 1.7 0.00 0.00 0.00 72 1011.7
20260507100929 29 63 0.9 0.9 0.00 0.00 0.00 72 1011.7
20260507100426 29 69 1.7 1.7 0.00 0.00 0.00 71 1011.9
20260507095925 29 87 0.0 0.0 0.00 0.00 0.00 71 1012.0
20260507095421 29 58 0.9 1.7 0.00 0.00 0.00 70 1011.9
20260507094919 30 71 1.7 1.7 0.00 0.00 0.00 69 1011.8
20260507094415 30 59 2.6 2.6 0.00 0.00 0.00 69 1011.8
20260507093912 30 58 2.6 2.6 0.00 0.00 0.00 69 1011.8
20260507093410 30 65 2.6 2.6 0.00 0.00 0.00 69 1011.8
20260507092908 30 56 1.7 1.7 0.00 0.00 0.00 69 1011.9
20260507092404 30 58 2.6 2.6 0.00 0.00 0.00 69 1011.7
20260507091901 30 58 2.6 2.6 0.00 0.00 0.00 69 1012.0
20260507091357 30 57 2.6 2.6 0.00 0.00 0.00 69 1011.9
20260507090852 30 79 1.7 1.7 0.00 0.00 0.00 68 1011.9
20260507090349 31 64 1.7 1.7 0.00 0.00 0.00 67 1012.2
20260507085846 32 56 2.6 2.6 0.00 0.00 0.00 66 1011.7
20260507085343 32 56 1.7 1.7 0.00 0.00 0.00 67 1012.0
20260507084840 31 54 0.9 1.7 0.00 0.00 0.00 67 1011.8
20260507084336 31 59 1.7 1.7 0.00 0.00 0.00 68 1011.8
20260507083834 32 59 0.9 0.9 0.00 0.00 0.00 66 1011.7
20260507083330 32 64 1.7 1.7 0.00 0.00 0.00 66 1011.8
20260507082826 32 55 1.7 1.7 0.00 0.00 0.00 66 1011.7
20260507082322 32 61 1.7 1.7 0.00 0.00 0.00 66 1011.6
20260507081820 32 57 1.7 1.7 0.00 0.00 0.00 66 1011.8
20260507081315 32 59 1.7 1.7 0.00 0.00 0.00 67 1011.7
20260507080812 31 56 0.0 0.0 0.00 0.00 0.00 68 1011.8
20260507080309 30 73 0.0 0.0 0.00 0.00 0.00 70 1011.6
20260507075804 28 53 0.0 0.0 0.00 0.00 0.00 72 1011.5
20260507075300 28 82 0.0 0.0 0.00 0.00 0.00 71 1011.8
20260507074757 30 82 0.0 0.0 0.00 0.00 0.00 69 1011.7
20260507074255 30 72 0.0 0.0 0.00 0.00 0.00 69 1011.8
20260507073751 30 71 0.0 0.0 0.00 0.00 0.00 69 1011.7
20260507073248 29 71 0.0 0.0 0.00 0.00 0.00 70 1011.8
20260507072746 28 73 0.0 0.0 0.00 0.00 0.00 70 1011.7
20260507072243 30 73 0.0 0.0 0.00 0.00 0.00 68 1011.7
20260507071740 31 73 0.0 0.0 0.00 0.00 0.00 67 1011.6
20260507071236 32 73 0.0 0.0 0.00 0.00 0.00 65 1011.7
20260507070734 32 67 0.0 0.0 0.00 0.00 0.00 65 1011.8
20260507070230 32 52 0.0 0.0 0.00 0.00 0.00 65 1011.7
20260507065727 32 100 0.0 0.0 0.00 0.00 0.00 65 1011.7
20260507065223 33 158 0.0 0.0 0.00 0.00 0.00 64 1011.9
20260507064721 33 139 0.9 0.9 0.00 0.00 0.00 64 1012.0
20260507064215 34 107 1.7 1.7 0.00 0.00 0.00 62 1011.7
20260507063711 34 88 1.7 1.7 0.00 0.00 0.00 62 1011.8
20260507063208 34 90 1.7 1.7 0.00 0.00 0.00 63 1012.2
20260507062705 34 93 0.9 1.7 0.00 0.00 0.00 62 1011.9
20260507062203 34 127 2.6 2.6 0.00 0.00 0.00 62 1011.9
20260507061700 34 107 1.7 1.7 0.00 0.00 0.00 62 1011.8
20260507061158 34 100 1.7 1.7 0.00 0.00 0.00 63 1011.9
20260507060656 33 96 0.9 1.7 0.00 0.00 0.00 63 1012.0
20260507060152 34 86 0.9 0.9 0.00 0.00 0.00 62 1012.1
20260507055648 34 87 2.6 2.6 0.00 0.00 0.00 62 1011.7
20260507055144 34 89 1.7 1.7 0.00 0.00 0.00 61 1011.9
20260507054640 34 94 2.6 2.6 0.00 0.00 0.00 61 1012.0
20260507054137 35 73 2.6 2.6 0.00 0.00 0.00 61 1012.0
20260507053635 35 103 2.6 2.6 0.00 0.00 0.00 61 1012.0
20260507053133 35 101 2.6 2.6 0.00 0.00 0.00 61 1012.0
20260507052631 35 101 2.6 2.6 0.00 0.00 0.00 60 1012.1
20260507052127 35 99 2.6 2.6 0.00 0.00 0.00 60 1012.0
20260507051624 36 105 2.6 2.6 0.00 0.00 0.00 59 1012.0
20260507051121 36 110 2.6 2.6 0.00 0.00 0.00 58 1011.9
20260507050618 36 116 3.5 4.3 0.00 0.00 0.00 58 1012.1
20260507050115 36 110 2.6 2.6 0.00 0.00 0.00 58 1012.0
20260507045612 36 95 2.6 2.6 0.00 0.00 0.00 58 1012.1
20260507045108 36 87 2.6 2.6 0.00 0.00 0.00 58 1012.2
20260507044605 36 101 3.5 5.2 0.00 0.00 0.00 57 1012.4
20260507044102 37 95 3.5 4.3 0.00 0.00 0.00 56 1012.3
20260507043557 37 140 4.3 4.3 0.00 0.00 0.00 55 1012.4
20260507043055 38 77 2.6 4.3 0.00 0.00 0.00 54 1012.2
20260507042551 39 76 3.5 4.3 0.00 0.00 0.00 54 1012.4
20260507042047 38 74 3.5 4.3 0.00 0.00 0.00 54 1012.3
20260507041544 38 82 1.7 2.6 0.00 0.00 0.00 55 1012.3
20260507041041 38 83 2.6 2.6 0.00 0.00 0.00 54 1012.3
20260507040537 38 64 2.6 2.6 0.00 0.00 0.00 54 1012.5
20260507040033 39 75 2.6 2.6 0.00 0.00 0.00 51 1012.4
20260507035530 39 70 2.6 2.6 0.00 0.00 0.00 51 1012.6
20260507035026 39 71 2.6 2.6 0.00 0.00 0.00 51 1012.4
20260507034523 40 73 2.6 4.3 0.00 0.00 0.00 50 1012.6
20260507034021 40 62 3.5 4.3 0.00 0.00 0.00 50 1012.6
20260507033519 40 62 2.6 2.6 0.00 0.00 0.00 50 1012.9
20260507033016 40 69 2.6 2.6 0.00 0.00 0.00 50 1012.5
20260507032512 40 65 1.7 2.6 0.00 0.00 0.00 50 1012.9
20260507032009 40 71 2.6 2.6 0.00 0.00 0.00 50 1012.6
20260507031505 41 56 2.6 2.6 0.00 0.00 0.00 49 1012.6
20260507031003 41 64 2.6 4.3 0.00 0.00 0.00 49 1012.5
20260507030459 41 72 2.6 2.6 0.00 0.00 0.00 49 1012.6
20260507025956 41 60 2.6 2.6 0.00 0.00 0.00 49 1012.7
20260507025453 42 58 2.6 2.6 0.00 0.00 0.00 48 1012.9
20260507024951 42 57 2.6 2.6 0.00 0.00 0.00 48 1012.9
20260507024448 42 54 1.7 1.7 0.00 0.00 0.00 47 1012.7
20260507023944 42 49 2.6 4.3 0.00 0.00 0.00 47 1012.7
20260507023441 43 59 1.7 1.7 0.00 0.00 0.00 47 1012.6
20260507022938 43 58 1.7 1.7 0.00 0.00 0.00 46 1012.5
20260507022436 43 56 2.6 2.6 0.00 0.00 0.00 46 1012.9
20260507021931 44 49 2.6 2.6 0.00 0.00 0.00 45 1012.6
20260507021426 44 56 1.7 1.7 0.00 0.00 0.00 45 1012.6
20260507020924 44 59 1.7 1.7 0.00 0.00 0.00 44 1012.9
20260507020421 45 52 1.7 1.7 0.00 0.00 0.00 43 1012.7
20260507015918 45 51 0.9 1.7 0.00 0.00 0.00 44 1012.9
20260507015416 45 44 0.9 1.7 0.00 0.00 0.00 43 1012.5
20260507014913 46 52 0.9 0.9 0.00 0.00 0.00 43 1012.7
20260507014409 46 46 0.9 0.9 0.00 0.00 0.00 43 1012.5
20260507013905 46 48 1.7 2.6 0.00 0.00 0.00 42 1012.6
20260507013402 47 11 1.7 1.7 0.00 0.00 0.00 42 1012.5
20260507012859 47 25 0.0 0.0 0.00 0.00 0.00 42 1012.7
20260507012355 48 16 2.6 2.6 0.00 0.00 0.00 42 1012.6
20260507011847 48 341 3.5 4.3 0.00 0.00 0.00 41 1012.6
20260507011344 48 348 3.5 4.3 0.00 0.00 0.00 41 1012.7
20260507010838 49 34 0.9 1.7 0.00 0.00 0.00 40 1012.5
20260507010334 49 2 5.2 6.1 0.00 0.00 0.00 39 1012.9
20260507005831 49 7 4.3 5.2 0.00 0.00 0.00 38 1012.6
20260507005328 50 353 3.5 4.3 0.00 0.00 0.00 38 1012.7
20260507004824 50 335 4.3 6.1 0.00 0.00 0.00 38 1012.9
20260507004322 50 340 5.2 7.0 0.00 0.00 0.00 38 1013.0
20260507003819 50 29 4.3 5.2 0.00 0.00 0.00 38 1012.9
20260507003314 50 4 3.5 4.3 0.00 0.00 0.00 38 1013.1
20260507002809 51 349 5.2 7.0 0.00 0.00 0.00 37 1012.6
20260507002306 51 288 4.3 4.3 0.00 0.00 0.00 37 1012.9
20260507001757 51 355 5.2 7.0 0.00 0.00 0.00 37 1012.5
20260507001255 52 321 3.5 5.2 0.00 0.00 0.00 36 1012.9
20260507000751 51 319 6.1 7.0 0.00 0.00 0.00 37 1013.2
20260507000246 52 344 7.8 9.6 0.00 0.00 0.00 37 1013.2
20260506235743 50 300 3.5 4.3 0.00 0.00 0.00 38 1013.1
20260506235239 49 297 4.3 5.2 0.00 0.00 0.00 39 1013.1
20260506234736 50 344 2.6 4.3 0.00 0.00 0.00 39 1013.1
20260506234233 50 316 5.2 7.0 0.00 0.00 0.00 37 1013.2
20260506233731 50 331 7.0 7.8 0.00 0.00 0.00 38 1013.3
20260506233227 51 7 8.7 11.3 0.00 0.00 0.00 36 1013.3
20260506232724 50 335 4.3 5.2 0.00 0.00 0.00 39 1013.5
20260506232218 50 319 5.2 6.1 0.00 0.00 0.00 38 1013.3
20260506231716 51 288 5.2 7.0 0.00 0.00 0.00 39 1013.5
20260506231214 50 299 6.1 7.0 0.00 0.00 0.00 39 1013.4